TimeCDT,TemperatureF,Dew PointF,Humidity,Sea Level PressureIn,VisibilityMPH,Wind Direction,Wind SpeedMPH,Gust SpeedMPH,PrecipitationIn,Events,Conditions,WindDirDegrees,DateUTC
12:53 AM,75.9,73.0,91,29.89,10.0,SW,5.8,-,N/A,,Clear,230,2013-06-18 05:53:00
1:53 AM,75.9,73.0,91,29.91,10.0,West,3.5,-,N/A,,Clear,280,2013-06-18 06:53:00
2:53 AM,75.9,73.0,91,29.89,10.0,West,4.6,-,N/A,,Clear,260,2013-06-18 07:53:00
3:53 AM,73.9,72.0,93,29.88,9.0,Calm,Calm,-,N/A,,Clear,0,2013-06-18 08:53:00
4:53 AM,73.0,71.1,93,29.89,10.0,SW,5.8,-,N/A,,Clear,230,2013-06-18 09:53:00
5:53 AM,73.0,71.1,93,29.91,10.0,SW,3.5,-,N/A,,Clear,230,2013-06-18 10:53:00
6:53 AM,75.9,73.0,91,29.94,10.0,SW,6.9,-,N/A,,Clear,220,2013-06-18 11:53:00
7:53 AM,77.0,73.9,90,29.95,10.0,SW,4.6,-,N/A,,Mostly Cloudy,230,2013-06-18 12:53:00
8:53 AM,75.9,73.0,91,29.97,10.0,WNW,4.6,-,N/A,,Overcast,290,2013-06-18 13:53:00
9:16 AM,77.0,71.6,83,29.95,10.0,West,5.8,-,N/A,,Mostly Cloudy,280,2013-06-18 14:16:00
9:53 AM,79.0,72.0,79,29.97,10.0,West,4.6,-,N/A,,Overcast,280,2013-06-18 14:53:00
10:22 AM,78.8,71.6,78,29.96,10.0,NW,5.8,-,N/A,,Overcast,310,2013-06-18 15:22:00
10:53 AM,81.0,72.0,74,29.98,10.0,North,9.2,-,N/A,,Partly Cloudy,350,2013-06-18 15:53:00
11:53 AM,84.0,70.0,63,29.99,10.0,Calm,Calm,-,N/A,,Overcast,0,2013-06-18 16:53:00
12:53 PM,82.9,71.1,67,29.98,10.0,NNE,11.5,-,N/A,,Scattered Clouds,20,2013-06-18 17:53:00
1:53 PM,81.0,70.0,69,29.97,10.0,North,9.2,-,N/A,,Mostly Cloudy,350,2013-06-18 18:53:00
2:53 PM,86.0,71.1,61,29.94,10.0,North,9.2,-,N/A,,Partly Cloudy,360,2013-06-18 19:53:00
3:53 PM,84.0,69.1,61,29.95,10.0,North,9.2,-,N/A,,Mostly Cloudy,360,2013-06-18 20:53:00
4:53 PM,82.0,68.0,62,29.94,10.0,North,9.2,-,N/A,,Mostly Cloudy,350,2013-06-18 21:53:00
5:53 PM,80.1,68.0,67,29.94,10.0,North,6.9,-,N/A,,Partly Cloudy,10,2013-06-18 22:53:00
6:53 PM,81.0,66.9,62,29.95,10.0,NNE,4.6,-,N/A,,Clear,30,2013-06-18 23:53:00
7:53 PM,80.1,68.0,67,29.94,10.0,NE,3.5,-,N/A,,Clear,40,2013-06-19 00:53:00
8:53 PM,78.1,69.1,74,29.95,10.0,NE,3.5,-,N/A,,Clear,40,2013-06-19 01:53:00
9:53 PM,75.0,69.1,82,29.97,10.0,North,3.5,-,N/A,,Clear,360,2013-06-19 02:53:00
10:53 PM,75.9,69.1,79,29.98,10.0,NE,3.5,-,N/A,,Clear,40,2013-06-19 03:53:00
11:53 PM,72.0,68.0,87,29.98,9.0,Calm,Calm,-,N/A,,Clear,0,2013-06-19 04:53:00